Content
SEND FEEDBACK

Daily
Averages
Monthly
Summary
United States of America

STATEN ISLAND, NEW YORK


Home > North America > United States > New York
Elevation: 152 feet     Latitude: 40 35N     Longitude: 074 09W

WEATHER
 
SELECT A DAY
Number of Records: 189,619;   Date Range: 1/1/95 - 7/27/14
 
SHARE

PRINT THIS DATA

[ ← Previous Day ]
WEATHER ALMANAC - APRIL 7, 2013
[ Next Day → ]
[ °C ]   °F
Weather ElementAverageHighLow
Temperature49.9 °F59 °F (6:51 pm)39 °F (1:51 am)
Dewpoint34.6 °F43 °F (8:51 pm)26.1 °F (8:51 am)
Humidity57.2 %73 % (4:51 am)30 % (12:51 pm)
Barometer30.15 in30.31 in (1:51 am)29.99 in (5:51 pm)
Wind Speed11.4 mph17.3 mph (6:51 pm)
Wind Gust23 mph (3:51 pm)
Weather ElementAverage
Visibility10 mi
Wind DirectionS (177.4 °)

Weather ElementTotal
Precipitation---
Heating Degree Days16 (Base 65)
Averaged from 23 records on April 7, 2013
WEATHER CONDITIONS BREAKOUT
WIND DIRECTION BREAKOUT
WEATHER BY HOUR - APRIL 7, 2013
[ °C ]   °F
Local TimeTemperatureDewpointHumidityBarometerVisibilityWind DirectionWind SpeedGust SpeedPrecipitationEventsConditions
1:51 AM39.0 °F28.9 °F67 %30.31 in10.0 miSouth (190°)12.7 mphMostly Cloudy
2:51 AM39.0 °F28.9 °F67 %30.29 in10.0 miSSW (200°)10.4 mphMostly Cloudy
3:51 AM39.0 °F30.0 °F70 %30.29 in10.0 miSouth (180°)10.4 mphScattered Clouds
4:51 AM39.0 °F30.9 °F73 %30.29 in10.0 miSouth (180°)6.9 mphMostly Cloudy
5:51 AM39.0 °F30.9 °F73 %30.29 in10.0 miSouth (190°)8.1 mphMostly Cloudy
6:51 AM39.9 °F30.0 °F68 %30.29 in10.0 miSW (220°)5.8 mphOvercast
7:51 AM42.8 °F28.4 °F57 %30.28 in10.0 miSSW (200°)8.1 mphMostly Cloudy
8:51 AM44.1 °F26.1 °F49 %30.28 in10.0 miSouth (180°)8.1 mphOvercast
9:51 AM46.4 °F26.6 °F46 %30.26 in10.0 miSouth (180°)13.8 mph19.6 mphMostly Cloudy
10:51 AM51.1 °F28.0 °F41 %30.24 in10.0 miSouth (180°)13.8 mph19.6 mphMostly Cloudy
11:51 AM54.0 °F27.0 °F35 %30.21 in10.0 miSSW (200°)12.7 mph20.7 mphScattered Clouds
12:51 PM57.0 °F26.1 °F30 %30.15 in10.0 miSSE (160°)10.4 mph20.7 mphMostly Cloudy
1:51 PM55.9 °F37.9 °F51 %30.12 in10.0 miSE (130°)12.7 mph21.9 mphMostly Cloudy
2:51 PM57.0 °F39.0 °F51 %30.09 in10.0 miSE (130°)16.1 mphMostly Cloudy
3:51 PM57.0 °F39.9 °F53 %30.04 in10.0 miSE (140°)16.1 mph23.0 mphMostly Cloudy
4:51 PM55.9 °F41.0 °F57 %30.02 in10.0 miSSE (150°)15.0 mph19.6 mphMostly Cloudy
5:51 PM55.9 °F42.1 °F60 %29.99 in10.0 miSE (140°)11.5 mph18.4 mphMostly Cloudy
6:51 PM59.0 °F41.0 °F51 %30.00 in10.0 miSouth (170°)17.3 mph21.9 mph0.00 inRainLight Rain
7:51 PM57.9 °F42.1 °F56 %30.02 in10.0 miSouth (190°)9.2 mph19.6 mph0.00 inMostly Cloudy
8:51 PM55.9 °F43.0 °F62 %30.04 in10.0 miSouth (180°)10.4 mphMostly Cloudy
9:51 PM54.0 °F43.0 °F66 %30.03 in10.0 miSouth (190°)9.2 mphScattered Clouds
10:51 PM54.0 °F43.0 °F66 %30.02 in10.0 miSSW (200°)11.5 mphScattered Clouds
11:51 PM54.0 °F43.0 °F66 %30.00 in10.0 miSSW (200°)12.7 mphMostly Cloudy
Hourly data recorded from KEWR, located miles away from Staten Island, New York







STORIES FROM OUR PARTNERS